Weather History for Newcastle, WY

Change the Weather History Date:

Thursday, July 4, 2013

  Actual Average (KCUT) Record (KCUT)
Temperature  
Mean Temperature 74 °F 64 °F  
Max Temperature 89 °F 78 °F 97 °F (1989)
Min Temperature 60 °F 51 °F 33 °F (1972)
Degree Days  
Heating Degree Days 0 3  
Month to date heating degree days 12  
Since 1 June heating degree days 232  
Since 1 July heating degree days 12  
Cooling Degree Days 10 2  
Month to date cooling degree days 8  
Year to date cooling degree days 34  
Since 1 June cooling degree days 33  
Growing Degree Days 24 (Base 50)    
Moisture  
Dew Point 46 °F    
Average Humidity 38    
Maximum Humidity 60    
Minimum Humidity 22    
Precipitation  
Precipitation 0.00 in 0.08 in 0.52 in (1958)
Month to date precipitation 0.30  
Year to date precipitation 10.63  
Sea Level Pressure  
Sea Level Pressure 29.94 in    
Wind  
Wind Speed 5 mph (NNE)    
Max Wind Speed 17 mph    
Max Gust Speed 23 mph    
Visibility 10 miles    
Events Rain    
T = Trace of Precipitation, MM = Missing Value Source: NWS Daily Summary

Daily Weather History Graph

Daily Weather History Graph

Search for Another Location

Airport:

Trip Planner

Search our weather history database for the weather conditions in past years. The results will help you decide how hot, cold, wet, or windy it might be!

Date:

Astronomy

Jul. 04, 2013 Rise Set
Actual Time 5:20 AM MDT 8:42 PM MDT
Civil Twilight 4:44 AM MDT 9:18 PM MDT
Nautical Twilight 3:58 AM MDT 10:04 PM MDT
Astronomical Twilight 2:59 AM MDT 11:03 PM MDT
Moon 2:41 AM MDT (7/4) 5:46 PM MDT (7/4)
Length of Visible Light 16h 33m
Length of Day
15h 21m
Waning Crescent, 11% of the Moon is Illuminated
Jul 4
Waning Crescent
Jul 8
New
Jul 15
First Quarter
Jul 22
Full
Jul 29
Last Quarter

Hourly Weather History & Observations

Time (MDT) Temp. Dew Point Humidity Pressure Visibility Wind Dir Wind Speed Gust Speed Precip Events Conditions
12:15 AM 68.0 °F 41.0 °F 37% 29.94 in 10.0 mi Calm Calm - N/A   Clear
12:35 AM 69.8 °F 41.0 °F 35% 29.94 in 10.0 mi Calm Calm - N/A   Clear
12:55 AM 68.0 °F 41.0 °F 37% 29.94 in 10.0 mi Calm Calm - N/A   Clear
1:15 AM 68.0 °F 41.0 °F 37% 29.94 in 10.0 mi Calm Calm - N/A   Clear
1:35 AM 69.8 °F 41.0 °F 35% 29.94 in 10.0 mi Calm Calm - N/A   Clear
1:55 AM 62.6 °F 41.0 °F 45% 29.93 in 10.0 mi North 3.5 mph - N/A   Clear
2:15 AM 62.6 °F 41.0 °F 45% 29.93 in 10.0 mi North 4.6 mph - N/A   Clear
2:35 AM 62.6 °F 41.0 °F 45% 29.93 in 10.0 mi North 5.8 mph - N/A   Clear
2:55 AM 62.6 °F 41.0 °F 45% 29.93 in 10.0 mi North 6.9 mph - N/A   Clear
3:15 AM 60.8 °F 41.0 °F 48% 29.93 in 10.0 mi North 9.2 mph - N/A   Clear
3:35 AM 60.8 °F 42.8 °F 52% 29.93 in 10.0 mi North 8.1 mph - N/A   Clear
3:55 AM 60.8 °F 42.8 °F 52% 29.94 in 10.0 mi North 10.4 mph - N/A   Clear
4:15 AM 60.8 °F 42.8 °F 52% 29.93 in 10.0 mi North 9.2 mph - N/A   Clear
4:35 AM 60.8 °F 42.8 °F 52% 29.93 in 10.0 mi North 9.2 mph - N/A   Clear
4:55 AM 60.8 °F 42.8 °F 52% 29.93 in 10.0 mi North 10.4 mph - N/A   Clear
5:15 AM 60.8 °F 42.8 °F 52% 29.93 in 10.0 mi North 11.5 mph - N/A   Clear
5:35 AM 60.8 °F 42.8 °F 52% 29.93 in 10.0 mi North 9.2 mph - N/A   Clear
5:55 AM 60.8 °F 42.8 °F 52% 29.93 in 10.0 mi Calm Calm - N/A   Clear
6:15 AM 60.8 °F 42.8 °F 52% 29.94 in 10.0 mi Calm Calm - N/A   Clear
6:35 AM 62.6 °F 44.6 °F 52% 29.94 in 7.0 mi North - - N/A   Clear
6:55 AM 66.2 °F 44.6 °F 46% 29.95 in 10.0 mi Calm Calm - N/A   Clear
7:15 AM 69.8 °F 44.6 °F 40% 29.96 in 10.0 mi Calm Calm - N/A   Clear
7:35 AM 71.6 °F 44.6 °F 38% 29.96 in 10.0 mi NNW 4.6 mph - N/A   Clear
7:55 AM 73.4 °F 44.6 °F 36% 29.96 in 10.0 mi NNW 3.5 mph - N/A   Clear
8:15 AM 77.0 °F 42.8 °F 29% 29.96 in 10.0 mi NW 5.8 mph - N/A   Clear
8:35 AM 78.8 °F 42.8 °F 28% 29.95 in 10.0 mi NW 6.9 mph - N/A   Clear
8:55 AM 78.8 °F 41.0 °F 26% 29.95 in 10.0 mi WNW 8.1 mph - N/A   Clear
9:15 AM 77.0 °F 42.8 °F 29% 29.97 in 10.0 mi NW 8.1 mph - N/A   Clear
9:35 AM 77.0 °F 42.8 °F 29% 29.97 in 10.0 mi NW 10.4 mph - N/A   Clear
9:55 AM 75.2 °F 44.6 °F 34% 29.98 in 10.0 mi NNW 11.5 mph - N/A   Clear
10:15 AM 77.0 °F 50.0 °F 39% 29.98 in 10.0 mi North - - N/A   Clear
10:35 AM 78.8 °F 51.8 °F 39% 29.96 in 10.0 mi NNE 17.3 mph 23.0 mph N/A   Clear
10:55 AM 80.6 °F 50.0 °F 34% 29.96 in 10.0 mi North - - N/A   Clear
11:15 AM 82.4 °F 48.2 °F 30% 29.96 in 10.0 mi North - - N/A   Clear
11:35 AM 82.4 °F 48.2 °F 30% 29.95 in 10.0 mi North - - N/A   Clear
11:55 AM 82.4 °F 46.4 °F 28% 29.95 in 10.0 mi NE 9.2 mph - N/A   Clear
12:15 PM 86.0 °F 48.2 °F 27% 29.95 in 10.0 mi North - - N/A   Clear
12:35 PM 82.4 °F 46.4 °F 28% 29.95 in 10.0 mi ENE 8.1 mph - N/A   Clear
12:55 PM 86.0 °F 46.4 °F 25% 29.95 in 10.0 mi North - - N/A   Clear
1:15 PM 86.0 °F 46.4 °F 25% 29.95 in 10.0 mi North - - N/A   Clear
1:35 PM 87.8 °F 46.4 °F 24% 29.94 in 10.0 mi North - - N/A   Clear
1:55 PM 86.0 °F 46.4 °F 25% 29.94 in 10.0 mi NE 6.9 mph - N/A   Clear
2:15 PM 87.8 °F 46.4 °F 24% 29.94 in 10.0 mi ESE 4.6 mph - N/A   Clear
2:35 PM 86.0 °F 46.4 °F 25% 29.94 in 10.0 mi North - - N/A   Clear
2:55 PM 87.8 °F 46.4 °F 24% 29.94 in 10.0 mi North - - N/A   Clear
3:15 PM 86.0 °F 46.4 °F 25% 29.94 in 10.0 mi ESE 6.9 mph - N/A   Clear
3:35 PM 87.8 °F 46.4 °F 24% 29.92 in 10.0 mi SE 9.2 mph - N/A   Clear
3:55 PM 89.6 °F 46.4 °F 22% 29.92 in 10.0 mi North - - N/A   Clear
4:15 PM 87.8 °F 46.4 °F 24% 29.91 in 10.0 mi Calm Calm - N/A   Clear
4:35 PM 87.8 °F 46.4 °F 24% 29.91 in 10.0 mi Calm Calm - N/A   Clear
4:55 PM 86.0 °F 46.4 °F 25% 29.91 in 10.0 mi NNE 4.6 mph - N/A   Clear
5:15 PM 86.0 °F 44.6 °F 23% 29.90 in 10.0 mi North - - N/A   Clear
5:35 PM 84.2 °F 44.6 °F 25% 29.90 in 10.0 mi Calm Calm - N/A   Clear
5:55 PM 84.2 °F 46.4 °F 27% 29.90 in 10.0 mi North - - N/A   Clear
6:15 PM 84.2 °F 46.4 °F 27% 29.90 in 10.0 mi North - - N/A   Clear
6:35 PM 82.4 °F 44.6 °F 26% 29.91 in 10.0 mi South 17.3 mph - N/A   Clear
6:55 PM 78.8 °F 50.0 °F 36% 29.91 in 10.0 mi SSW 11.5 mph - N/A   Clear
7:15 PM 77.0 °F 48.2 °F 36% 29.93 in 10.0 mi SE 13.8 mph - N/A   Clear
7:35 PM 77.0 °F 48.2 °F 36% 29.93 in 10.0 mi SE 13.8 mph - N/A   Clear
7:55 PM 75.2 °F 48.2 °F 38% 29.93 in 10.0 mi ESE 9.2 mph - N/A   Clear
8:15 PM 73.4 °F 51.8 °F 47% 29.92 in 10.0 mi SE 9.2 mph - N/A   Clear
8:35 PM 73.4 °F 51.8 °F 47% 29.91 in 10.0 mi ESE 8.1 mph - N/A   Clear
8:55 PM 73.4 °F 51.8 °F 47% 29.92 in 10.0 mi ESE 5.8 mph - N/A   Clear
9:15 PM 71.6 °F 51.8 °F 50% 29.92 in 10.0 mi SE 3.5 mph - N/A   Clear
9:35 PM 71.6 °F 51.8 °F 50% 29.94 in 10.0 mi East 4.6 mph - N/A   Clear
9:55 PM 73.4 °F 50.0 °F 44% 29.94 in 10.0 mi SE 4.6 mph - N/A   Clear
10:15 PM 71.6 °F 50.0 °F 46% 29.96 in 10.0 mi SE 4.6 mph - N/A   Clear
10:35 PM 71.6 °F 51.8 °F 50% 29.96 in 10.0 mi SE 4.6 mph - N/A   Clear
10:55 PM 68.0 °F 51.8 °F 56% 29.95 in 10.0 mi Calm Calm - N/A   Clear
11:15 PM 69.8 °F 51.8 °F 53% 29.95 in 10.0 mi Calm Calm - N/A   Clear
11:35 PM 69.8 °F 51.8 °F 53% 29.97 in 10.0 mi West 10.4 mph - N/A   Clear
11:55 PM 69.8 °F 55.4 °F 60% 30.00 in 10.0 mi WNW 12.7 mph 19.6 mph N/A Rain Light Rain